Overview Statistics Trail Chart Weather Telemetry Raw packets
 

This is the latest recevied weather packets stored in our database for station/object N7IGG. If no packets are shown the sender has not sent any weather packets the latest 10 day(s).

<< 106 107 108 109 110 111 112 >>
Time Temp. Humidity Pressure Rain* Wind** Luminosity Snow
1777392145 10° C 89% 1024.4 hPa 0 mm - 69 W/m² -
1777391840 10° C 89% 1024.3 hPa 0 mm - 61 W/m² -
1777391535 10° C 89% 1024.1 hPa 0 mm - 64 W/m² -
1777391232 10° C 90% 1024.3 hPa 0 mm - 45 W/m² -
1777390929 10° C 90% 1024.3 hPa 0 mm - 44 W/m² -
1777390625 10° C 90% 1024.2 hPa 0 mm - 42 W/m² -
1777390321 9.44° C 91% 1024.1 hPa 0 mm - 39 W/m² -
1777390017 9.44° C 91% 1024.3 hPa 0 mm - 34 W/m² -
1777389715 9.44° C 91% 1024.2 hPa 0 mm - 31 W/m² -
1777389411 9.44° C 91% 1024.2 hPa 0 mm - 31 W/m² -
1777389109 9.44° C 91% 1024.3 hPa 0 mm - 23 W/m² -
1777388806 9.44° C 92% 1023.9 hPa 0 mm - 21 W/m² -
1777388504 9.44° C 92% 1024 hPa 0 mm - 17 W/m² -
1777388204 9.44° C 92% 1023.8 hPa 0 mm - 16 W/m² -
1777387899 9.44° C 92% 1023.9 hPa 0 mm - 17 W/m² -
1777387596 9.44° C 92% 1023.6 hPa 0 mm - 23 W/m² -
1777387293 9.44° C 92% 1023.8 hPa 0 mm - 23 W/m² -
1777386987 9.44° C 92% 1023.5 hPa 0 mm - 26 W/m² -
1777386685 9.44° C 92% 1023.6 hPa 0 mm - 26 W/m² -
1777386381 9.44° C 93% 1023.5 hPa 0 mm - 24 W/m² -
1777386079 9.44° C 93% 1023.5 hPa 0 mm - 23 W/m² -
1777385775 9.44° C 93% 1023.6 hPa 0 mm - 23 W/m² -
1777385472 9.44° C 93% 1023.5 hPa 0 mm - 18 W/m² -
1777385169 9.44° C 93% 1023.4 hPa 0 mm - 15 W/m² -
1777384864 9.44° C 93% 1023.4 hPa 0 mm - 11 W/m² -

* Rain latest hour (hover to see other rain measurements)
** Current wind speed in m/s (hover to see current wind gust speed)